Regional Weather Roundup
Issued by NWS

Home | Current Version | Previous Version | Text Only | Print | Product List | Glossary On
Versions: 1 2 3 4 5 6 7 8 9 10 11 12 13 14 15 16 17 18 19 20 21 22 23 24 25 26 27 28 29 30 31 32 33 34 35 36 37 38 39 40 41 42 43 44 45 46 47 48 49 50
000
ASUS43 KDTX 180410
RWRMI
MICHIGAN HOURLY REGIONAL WEATHER ROUNDUP
NATIONAL WEATHER SERVICE DETROIT/PONTIAC MI
1100 PM EST FRI NOV 17 2017

NOTE: "FAIR" INDICATES FEW OR NO CLOUDS BELOW 12,000 FEET WITH NO
SIGNIFICANT WEATHER AND/OR OBSTRUCTION TO VISIBILITY.

MIZ047>049-052>055-059>063-066>070-074>076-081>083-180500-
SOUTHEAST LOWER MICHIGAN

CITY           SKY/WX    TMP DP  RH WIND       PRES   REMARKS
ADRIAN         LGT RAIN  42  34  73 S12       29.72F
ALMA           MIX PCPN  40  38  93 S6        29.64F
ANN ARBOR      CLOUDY    42  34  73 SE8       29.71F
BAD AXE        LGT RAIN  39  35  86 S16G24    29.68F WCI  30
CARO           LGT RAIN  42  35  76 SE15      29.65F
DETROIT CITY   CLOUDY    54  35  48 S12G20    29.74F
DETROIT        CLOUDY    44  34  67 SE13      29.73F
FLINT          CLOUDY    43  34  70 S15       29.67F
GROSSE ILE     MOCLDY    43  36  77 S14       29.73F
HILLSDALE      RAIN      39  36  87 S8        29.68S WCI  34
HOWELL         RAIN      41  36  81 S15G22    29.67F

CITY           SKY/WX    TMP DP  RH WIND       PRES   REMARKS
JACKSON        HVY RAIN  41  38  89 S12       29.70S FOG
LAMBERTVILLE   CLOUDY    47  32  56 S15G21    29.70F
LANSING        HVY RAIN  41  38  89 S18G28    29.64F FOG
LAPEER         LGT RAIN  41  34  77 S10G18    29.68F
MASON          HVY RAIN  42  37  83 S8G21     29.67F
MONROE         CLOUDY    45  33  64 SE10      29.71F
MT. CLEMENS    LGT RAIN  43  39  87 S15       29.72F
PONTIAC        CLOUDY    41  35  79 SE17G25   29.68F
PORT HOPE        N/A     40  35  83 S13G22    29.66F WCI  32
PORT HURON     RAIN      43  34  70 S14       29.75F
TRI CITIES     LGT RAIN  41  38  89 S12       29.65F
MIDLAND        LGT RAIN  40  37  89 S7        29.64F
TROY           CLOUDY    44  36  73 S7G17     29.73F
SAGINAW HB     MIX PCPN  41  36  81 S12       29.65F
$$
MIZ043>046-050>051-056>058-064>065-071>073-077>080-180500-
SOUTHWEST LOWER MICHIGAN

CITY           SKY/WX    TMP DP  RH WIND       PRES   REMARKS
BATTLE CREEK   LGT RAIN  41  39  93 S18G26    29.65F FOG
BENTON HARBOR  LGT RAIN  42  39  89 S13G22    29.63S FOG
BIG RAPIDS     LGT SNOW  38  36  94 S6        29.61F WCI  33
COLDWATER      RAIN      41  38  91 S14G24    29.67F
FREMONT        LGT RAIN  39  39 100 S5        29.62F
HOLLAND        LGT RAIN  43  41  93 S9        29.65R FOG
GRAND RAPIDS   HVY RAIN  41  41 100 SW13      29.65R FOG
IONIA          RAIN      41  38  89 S14G21    29.62F
KALAMAZOO      LGT RAIN  41  37  86 S14G24    29.65S FOG
LUDINGTON      RAIN      39  38  94 S9        29.61S WCI  33
MARSHALL       RAIN      40  39  99 SE14      29.65F WCI  32
MOUNT PLEASANT RAIN      40  38  91 CALM      29.64S
MUSKEGON       LGT RAIN  41  39  93 S7        29.62F FOG
SOUTH HAVEN    DRIZZLE   43  40  91 S13G23    29.63S
$$
MIZ016>042-180500-
NORTHERN LOWER MICHIGAN

CITY           SKY/WX    TMP DP  RH WIND       PRES   REMARKS
ALPENA         RAIN      36  36 100 SE6       29.68F FOG     WCI  31
BEAVER ISLAND  LGT RAIN  39  38  97 SE3       29.63F
BELLAIRE       LGT SNOW  36  36 100 CALM      29.65R
CADILLAC       RAIN      36  36  99 S5        29.60F WCI  32
CHARLEVOIX     DRIZZLE   36  36 100 SE6       29.67S WCI  31
FRANKFORT      RAIN      40  40  99 S3        29.62F
GAYLORD        LGT RAIN  34  32  92 S7        29.62F FOG     WCI  28
GRAYLING       LGT RAIN  35  33  94 SE5       29.64F WCI  31
HARBOR SPRINGS LGT RAIN  34  33  98 E5        29.66S WCI  30
HOUGHTON LAKE  LGT RAIN  36  34  92 SE6       29.64F FOG     WCI  31
MANISTEE       RAIN      37  37 100 E5        29.61F FOG     WCI  34
OSCODA         MIX PCPN  38  34  84 SW9       29.69R WCI  32
PELLSTON       LGT RAIN  34  34 100 SE3       29.66F
ROGERS CITY    LGT RAIN  35  34  96 SE7       29.68F WCI  29
TRAVERSE CITY  LGT RAIN  38  36  92 CALM      29.63S FOG
$$
MIZ007>008-015-180500-
EASTERN UPPER MICHIGAN

CITY           SKY/WX    TMP DP  RH WIND       PRES   REMARKS
KINROSS        MIX PCPN  34  34 100 SE10      29.65F FOG     WCI  26
MACKINAC ISLAN CLOUDY    37  35  95 SE7       29.65F WCI  31
NEWBERRY       MIX PCPN  32  32  99 E7        29.62S WCI  26
S. S. MARIE    LGT RAIN  36  34  92 SE7       29.65F FOG     WCI  30
MUNISING         N/A     36  36 100 CALM      29.61F
$$
MIZ004>006-011>014-085-180500-
CENTRAL UPPER MICHIGAN

CITY           SKY/WX    TMP DP  RH WIND       PRES   REMARKS
MANISTIQUE     LGT RAIN  38  33  81 NW5       29.61F WCI  35
ESCANABA       CLOUDY    37  36  96 W3        29.60F FOG
MENOMINEE      CLOUDY    37  37 100 CALM      29.60F FOG
SAWYER-GWINN   CLOUDY    32  32 100 CALM      29.59F FOG
$$
MIZ001>003-009>011-084-180500-
WESTERN UPPER MICHIGAN

CITY           SKY/WX    TMP DP  RH WIND       PRES   REMARKS
IRON MOUNTAIN  FOG       32  30  92 CALM      29.57F VSB 1/4
HOUGHTON       CLOUDY    34  32  92 NW5       29.58F FOG     WCI  30
COPPER HARBOR    N/A     34  32  92 CALM      29.59F
IRONWOOD       CLOUDY   N/A N/A N/A W7        29.64R
$$

ABBREVIATIONS USED IN REMARKS
   TC - TEMPERATURE IN CELSIUS
  WCI - WIND CHILL INDEX
   HX - HEAT INDEX
  VSB - VISIBILITY





USA.gov is the U.S. government's official web portal to all federal, state and local government web resources and services.